Theta_e
322 322 323 324 324 324 323 325 326 325 324 325 324 322 321 322 321 321 320 320 320 320 320 320 321 321 320
321 322 322 324 324 323 322 323 324 324 325 324 324 325 323 320 320 321 321 321 321 320 321 321 321 320 321
321 321 322 323 323 322 322 322 324 323 324 325 324 325 324 323 321 320 320 321 321 321 321 320 320 320 320
321 321 321 322 323 323 322 321 321 322 324 324 324 324 324 324 323 322 321 320 320 320 320 320 320 320 319
319 320 320 321 322 323 323 321 320 321 321 322 323 323 323 324 323 323 323 322 321 321 321 321 321 320 320
307 320 320 320 320 322 322 321 319 319 319 318 320 320 320 321 322 323 323 323 322 322 321 321 321 321 319
300 302 318 319 319 319 320 321 321 319 319 318 316 317 317 317 316 320 322 322 321 322 322 321 321 320 319
296 297 301 313 318 318 318 319 320 319 318 317 317 316 316 316 316 318 320 322 322 322 322 321 321 320 319
298 297 296 302 315 317 316 317 317 318 317 317 316 315 315 315 317 318 318 317 318 321 322 321 319 317 318
294 301 300 299 304 317 317 317 318 317 316 316 316 315 312 315 315 315 316 317 318 320 321 317 316 317 316
295 297 307 306 306 311 318 317 318 317 317 316 315 314 314 308 314 316 316 316 317 317 315 315 315 315 315
293 298 302 311 311 312 317 317 318 318 317 317 315 313 312 303 303 308 310 312 313 314 314 314 314 313 313
292 295 299 310 312 314 316 317 317 317 317 315 315 314 312 312 305 303 303 306 309 311 312 312 312 311 309
291 293 297 301 313 314 314 314 313 314 316 316 314 314 310 311 311 303 307 304 305 306 309 309 308 308 307
291 293 295 299 312 313 313 312 310 309 306 311 311 311 312 311 308 307 304 304 303 305 305 303 301 302 302
291 294 294 297 310 312 312 311 309 310 306 302 304 304 302 303 308 307 304 305 303 301 300 295 293 295 299
292 294 296 297 309 311 310 310 310 309 304 300 301 304 302 306 295 303 303 302 297 294 296 297 292 292 295
Wind_Speed
22 29 28 33 31 38 40 41 41 46 50 50 48 46 45 44 42 41 40 37 36 35 33 33 33 35 37
29 26 34 33 35 35 38 38 40 41 48 52 51 50 48 48 45 44 43 42 40 38 37 35 33 31 31
26 27 33 29 31 33 35 38 34 39 41 50 54 54 51 50 48 48 47 43 41 39 37 33 32 30 30
28 22 25 33 32 30 29 33 34 36 39 40 49 53 53 53 51 51 50 47 45 43 40 38 36 34 33
27 30 24 20 30 27 30 28 32 35 36 38 41 44 51 54 53 54 55 51 48 47 43 41 39 38 36
24 19 30 34 35 35 29 19 8 31 31 32 37 36 41 47 53 57 58 56 53 51 47 44 42 40 37
33 36 30 40 39 33 34 33 25 25 35 28 32 37 37 44 48 51 58 58 54 52 49 46 42 39 38
49 52 49 30 45 45 42 38 35 30 36 18 30 31 33 39 43 47 48 53 54 51 47 45 42 40 39
46 48 53 56 38 36 30 26 16 22 36 27 23 27 29 36 41 42 44 46 46 45 44 42 41 38 35
44 44 55 55 57 45 40 29 22 13 28 30 24 21 7 30 32 36 36 37 37 37 40 39 36 34 34
37 41 36 44 47 45 44 44 31 24 26 40 29 29 15 10 32 37 37 38 37 37 37 37 36 35 36
36 34 37 37 41 47 44 45 46 42 33 44 33 32 29 11 8 29 34 36 38 42 41 39 36 35 34
36 38 40 36 41 42 43 45 42 41 41 42 44 38 34 25 16 17 20 32 36 38 38 36 36 35 32
41 43 38 37 41 42 40 37 31 35 38 42 46 41 30 31 31 21 25 21 37 34 32 29 28 30 31
42 39 41 41 37 44 41 35 27 27 28 36 40 41 38 32 24 31 33 22 32 40 34 30 26 26 26
44 39 38 42 36 37 39 35 29 27 28 31 36 27 13 18 29 32 31 30 29 35 33 26 23 21 19
43 41 39 42 37 38 38 36 27 28 30 33 33 25 11 13 9 29 30 34 33 27 31 25 24 26 24
Wind_Direction
233 215 210 210 216 220 218 220 222 223 223 223 223 222 222 226 228 229 228 229 233 237 241 244 246 243 251
228 217 215 208 211 214 218 219 221 226 225 225 225 224 225 226 228 231 233 233 235 238 242 246 249 252 245
233 213 214 208 211 211 216 218 223 225 229 228 226 228 227 228 229 232 234 235 237 239 241 242 243 245 242
224 219 212 205 206 207 209 214 217 222 224 228 227 229 231 231 233 234 237 237 238 240 240 242 244 247 247
241 220 211 202 205 206 210 205 213 214 217 224 224 229 235 233 236 236 238 239 241 241 241 243 245 247 248
274 233 214 210 208 204 208 200 199 211 211 217 217 220 224 229 234 235 236 237 239 241 242 245 249 246 245
260 259 238 212 208 206 207 208 212 208 203 214 214 219 221 229 237 238 237 235 237 239 239 242 246 244 242
244 249 252 253 210 207 207 212 220 215 205 210 209 219 219 229 236 234 237 236 236 238 236 238 240 241 240
251 248 248 250 244 210 208 209 212 209 203 210 205 209 214 223 228 233 235 235 237 234 232 235 238 236 234
256 254 246 246 246 221 206 207 211 201 198 199 194 182 191 220 224 232 228 231 231 225 227 228 226 225 227
259 253 245 234 237 240 210 209 210 214 204 195 197 188 201 167 203 219 225 224 220 220 220 220 221 224 228
247 249 248 228 223 225 221 211 215 216 208 203 203 194 197 171 165 204 215 219 218 216 217 219 224 228 231
240 242 238 244 222 219 222 213 209 212 215 206 204 203 202 207 189 183 183 210 214 214 215 217 217 217 212
233 235 241 251 217 212 208 201 203 204 210 210 210 208 200 211 211 189 190 175 203 207 208 206 215 219 216
230 229 230 231 226 200 206 199 198 195 184 195 204 208 212 204 197 202 188 186 192 195 196 194 203 207 205
225 225 222 221 229 199 194 194 196 194 189 179 178 174 180 200 208 196 195 195 192 195 185 166 170 182 183
219 222 221 219 229 198 193 192 198 190 190 179 178 181 183 204 197 202 191 191 180 169 180 177 165 166 171